Peru, IN

9:31 PM EST on January 22, 2018 (GMT -0500)
Grissom Air Reserve Base

Weather History for KGUS - January, 2014

Change the Weather History Date:

Friday, January 10, 2014

  Actual Average Record
Temperature  
Mean Temperature 35 °F -  
Max Temperature 39 °F 29 °F 52 °F (2018)
Min Temperature 31 °F 18 °F -7 °F (2015)
Degree Days  
Heating Degree Days 30    
Moisture  
Dew Point 35 °F    
Average Humidity 100    
Maximum Humidity 100    
Minimum Humidity 100    
Precipitation  
Precipitation 0.23 in - - ()
Snow  
Snow 0.00 in - - ()
Snow Depth 12.00 in    
Sea Level Pressure  
Sea Level Pressure 30.00 in    
Wind  
Wind Speed 10 mph (SSE)    
Max Wind Speed 15 mph    
Max Gust Speed 21 mph    
Visibility 6 miles    
Events Fog , Rain    
Averages and records for this station are not official NWS values.
T = Trace of Precipitation, MM = Missing Value Source: NWS Daily Summary

Daily Weather History Graph

Daily Weather History Graph

Search for Another Location

Airport or City:

Trip Planner

Search our weather history database for the weather conditions in past years. The results will help you decide how hot, cold, wet, or windy it might be!

Date:

Astronomy

Jan. 10, 2014 Rise Set
Actual Time 8:07 AM EST 5:36 PM EST
Civil Twilight 7:37 AM EST 6:07 PM EST
Nautical Twilight 7:03 AM EST 6:41 PM EST
Astronomical Twilight 6:30 AM EST 7:14 PM EST
Moon 1:40 PM EST (1/10) 3:14 AM EST (1/10)
Length of Visible Light 10h 29m
Length of Day
9h 28m
Waxing Gibbous, 75% of the Moon is Illuminated
Jan 10
Waxing Gibbous
Jan 15
Full
Jan 24
Last Quarter
Jan 30
New
Feb 6
First Quarter

Hourly Weather History & Observations

Time (EST) Temp. Windchill Dew Point Humidity Pressure Visibility Wind Dir Wind Speed Gust Speed Precip Events Conditions
12:58 AM 31.6 °F 23.1 °F 31.6 °F 100% 30.22 in 10.0 mi South 10.4 mph - N/A   Overcast
1:58 AM 32.4 °F 24.0 °F 32.4 °F 100% 30.20 in 10.0 mi South 10.4 mph - N/A   Overcast
2:23 AM 32.0 °F 23.0 °F 32.0 °F 100% 30.16 in 9.0 mi South 11.5 mph - N/A   Overcast
2:26 AM 32.0 °F 22.5 °F 32.0 °F 100% 30.16 in 8.0 mi South 12.7 mph - N/A   Overcast
2:46 AM 32.0 °F 23.6 °F 32.0 °F 100% 30.16 in 6.0 mi South 10.4 mph - N/A   Overcast
2:58 AM 32.5 °F 24.8 °F 32.5 °F 100% 30.20 in 7.0 mi South 9.2 mph - N/A   Overcast
3:33 AM 32.0 °F 23.6 °F 32.0 °F 100% 30.15 in 5.0 mi South 10.4 mph - N/A   Overcast
3:38 AM 32.0 °F 23.6 °F 32.0 °F 100% 30.15 in 6.0 mi South 10.4 mph - N/A   Overcast
3:58 AM 32.7 °F 25.7 °F 32.7 °F 100% 30.19 in 6.0 mi South 8.1 mph - N/A   Overcast
4:38 AM 32.0 °F 24.8 °F 32.0 °F 100% 30.14 in 5.0 mi South 8.1 mph - N/A   Overcast
4:43 AM 32.0 °F 24.2 °F 32.0 °F 100% 30.14 in 5.0 mi South 9.2 mph - N/A   Overcast
4:58 AM 32.9 °F 25.3 °F 32.9 °F 100% 30.17 in 8.0 mi South 9.2 mph - N/A   Overcast
5:13 AM 32.0 °F 24.8 °F 32.0 °F 100% 30.13 in 10.0 mi South 8.1 mph - N/A   Overcast
5:23 AM 32.0 °F 25.6 °F 32.0 °F 100% 30.13 in 10.0 mi South 6.9 mph - N/A   Overcast
5:58 AM 33.1 °F 26.9 °F 33.1 °F 100% 30.16 in 10.0 mi South 6.9 mph - N/A   Overcast
6:23 AM 32.0 °F 24.8 °F 32.0 °F 100% 30.12 in 10.0 mi South 8.1 mph - N/A   Overcast
6:28 AM 32.0 °F 24.8 °F 32.0 °F 100% 30.12 in 10.0 mi South 8.1 mph - N/A   Overcast
6:58 AM 33.3 °F 27.9 °F 33.3 °F 100% 30.15 in 7.0 mi Variable 5.8 mph - N/A   Overcast
7:08 AM 32.0 °F 26.4 °F 32.0 °F 100% 30.11 in 6.0 mi South 5.8 mph - N/A   Overcast
7:28 AM 32.0 °F 26.4 °F 32.0 °F 100% 30.10 in 6.0 mi SSE 5.8 mph - N/A   Overcast
7:33 AM 32.0 °F 26.4 °F 32.0 °F 100% 30.11 in 7.0 mi South 5.8 mph - N/A   Overcast
7:48 AM 32.0 °F 26.4 °F 32.0 °F 100% 30.11 in 8.0 mi South 5.8 mph - N/A   Overcast
7:58 AM 33.3 °F 30.2 °F 33.3 °F 100% 30.15 in 8.0 mi SSE 3.5 mph - N/A   Overcast
8:23 AM 32.0 °F 26.4 °F 32.0 °F 100% 30.11 in 8.0 mi SE 5.8 mph - N/A   Overcast
8:43 AM 32.0 °F 25.6 °F 32.0 °F 100% 30.11 in 8.0 mi SSE 6.9 mph - N/A   Overcast
8:53 AM 32.0 °F 26.4 °F 32.0 °F 100% 30.12 in 8.0 mi SSE 5.8 mph - N/A   Overcast
8:58 AM 33.6 °F 29.4 °F 33.6 °F 100% 30.16 in 9.0 mi SSE 4.6 mph - N/A   Overcast
9:58 AM 34.2 °F 27.5 °F 34.2 °F 100% 30.15 in 5.0 mi SSE 8.1 mph - N/A   Overcast
10:23 AM 33.8 °F 27.0 °F 33.8 °F 100% 30.10 in 4.0 mi SSE 8.1 mph - N/A   Overcast
10:28 AM 33.8 °F 27.7 °F 33.8 °F 100% 30.10 in 2.0 mi SSE 6.9 mph - N/A   Overcast
10:30 AM 33.8 °F 27.7 °F 33.8 °F 100% 30.09 in 2.0 mi SSE 6.9 mph - N/A   Overcast
10:38 AM 33.8 °F 27.7 °F 33.8 °F 100% 30.08 in 1.8 mi SE 6.9 mph - N/A   Overcast
10:43 AM 33.8 °F 27.7 °F 33.8 °F 100% 30.09 in 1.2 mi SE 6.9 mph - N/A   Overcast
10:58 AM 34.3 °F 28.4 °F 34.3 °F 100% 30.12 in 1.2 mi SSE 6.9 mph - N/A   Overcast
11:18 AM 35.6 °F 29.2 °F 35.6 °F 100% 30.07 in 4.0 mi SSE 8.1 mph - N/A   Overcast
11:58 AM 36.0 °F 29.0 °F 36.0 °F 100% 30.08 in 7.0 mi SE 9.2 mph - N/A   Overcast
12:40 PM 35.6 °F 28.6 °F 35.6 °F 100% 30.00 in 10.0 mi SE 9.2 mph - N/A   Overcast
12:58 PM 35.8 °F 28.8 °F 35.8 °F 100% 30.01 in 10.0 mi SE 9.2 mph - N/A   Overcast
1:08 PM 35.6 °F 28.6 °F 35.6 °F 100% 29.96 in 10.0 mi SE 9.2 mph - N/A   Overcast
1:58 PM 37.2 °F 28.7 °F 37.2 °F 100% 29.94 in 10.0 mi SE 13.8 mph - N/A   Mostly Cloudy
2:43 PM 37.4 °F 29.8 °F 37.4 °F 100% 29.89 in 9.0 mi SE 11.5 mph - N/A   Overcast
2:58 PM 38.1 °F 30.2 °F 38.1 °F 100% 29.90 in 9.0 mi SE 12.7 mph - N/A   Overcast
3:08 PM 37.4 °F 29.8 °F 37.4 °F 100% 29.87 in 9.0 mi SE 11.5 mph - N/A   Mostly Cloudy
3:13 PM 37.4 °F 29.8 °F 37.4 °F 100% 29.87 in 9.0 mi SE 11.5 mph - N/A   Mostly Cloudy
3:48 PM 37.4 °F 29.3 °F 37.4 °F 100% 29.86 in 7.0 mi SE 12.7 mph - N/A   Mostly Cloudy
3:58 PM 38.5 °F 29.9 °F 38.5 °F 100% 29.89 in 7.0 mi SE 15.0 mph - N/A   Overcast
4:43 PM 37.4 °F 28.9 °F 37.4 °F 100% 29.84 in 2.0 mi SE 13.8 mph - N/A   Overcast
4:55 PM 37.4 °F 28.9 °F 37.4 °F 100% 29.84 in 1.2 mi SE 13.8 mph - N/A Rain Light Rain
4:58 PM 37.6 °F 29.6 °F 37.6 °F 100% 29.87 in 1.2 mi SE 12.7 mph - 0.00 in Rain Light Rain
5:04 PM 37.4 °F 29.3 °F 37.4 °F 100% 29.83 in 0.8 mi SE 12.7 mph - N/A   Overcast
5:10 PM 37.4 °F 29.3 °F 37.4 °F 100% 29.83 in 0.8 mi SE 12.7 mph - N/A Rain Light Rain
5:21 PM 37.4 °F 29.3 °F 37.4 °F 100% 29.82 in 0.5 mi SE 12.7 mph 20.7 mph N/A Fog Fog
5:58 PM 38.5 °F 29.9 °F 38.5 °F 100% 29.85 in 0.5 mi SE 15.0 mph 20.7 mph 0.01 in Fog , Rain Light Rain
6:26 PM 37.4 °F 29.3 °F 37.4 °F 100% 29.79 in 3.0 mi SE 12.7 mph 19.6 mph N/A Rain Light Rain
6:58 PM 37.9 °F 30.9 °F 37.9 °F 100% 29.82 in 7.0 mi SSE 10.4 mph 20.7 mph 0.04 in Rain Light Rain
7:58 PM 39.6 °F 31.7 °F 39.6 °F 100% 29.79 in 7.0 mi SE 13.8 mph - 0.05 in Rain Light Rain
8:58 PM 39.6 °F 32.1 °F 39.6 °F 100% 29.75 in 7.0 mi SSE 12.7 mph 19.6 mph 0.08 in Rain Light Rain
9:58 PM 38.7 °F 30.9 °F 38.7 °F 100% 29.69 in 7.0 mi SE 12.7 mph - 0.03 in Rain Light Rain
10:58 PM 39.6 °F 33.5 °F 39.6 °F 100% 29.67 in 7.0 mi SSE 9.2 mph 19.6 mph 0.01 in Rain Light Rain
11:18 PM 39.2 °F 33.0 °F 39.2 °F 100% 29.63 in 9.0 mi SSE 9.2 mph - N/A Rain Light Rain
11:28 PM 39.2 °F 32.5 °F 39.2 °F 100% 29.62 in 10.0 mi SSE 10.4 mph - N/A Rain Light Rain
11:58 PM 39.4 °F 33.8 °F 39.4 °F 100% 29.62 in 10.0 mi SSE 8.1 mph - 0.01 in Rain Light Rain